TimeMST,TemperatureF,Dew PointF,Humidity,Sea Level PressureIn,VisibilityMPH,Wind Direction,Wind SpeedMPH,Gust SpeedMPH,PrecipitationIn,Events,Conditions,WindDirDegrees,DateUTC
12:53 AM,54.0,28.0,37,29.71,10.0,SW,28.8,41.4,N/A,,Clear,220,2012-11-21 07:53:00
1:53 AM,54.0,28.0,37,29.70,10.0,SW,20.7,31.1,N/A,,Clear,220,2012-11-21 08:53:00
2:53 AM,54.0,28.0,37,29.70,10.0,SW,20.7,33.4,N/A,,Mostly Cloudy,230,2012-11-21 09:53:00
3:53 AM,55.0,28.0,35,29.70,10.0,WSW,21.9,36.8,N/A,,Mostly Cloudy,250,2012-11-21 10:53:00
4:53 AM,54.0,28.0,37,29.68,10.0,WSW,19.6,27.6,N/A,,Partly Cloudy,240,2012-11-21 11:53:00
5:53 AM,55.0,28.0,35,29.66,10.0,WSW,29.9,41.4,N/A,,Scattered Clouds,250,2012-11-21 12:53:00
6:53 AM,54.0,28.9,38,29.65,10.0,SW,33.4,46.0,N/A,,Overcast,220,2012-11-21 13:53:00
7:53 AM,52.0,30.9,45,29.66,10.0,SW,33.4,43.7,N/A,,Scattered Clouds,220,2012-11-21 14:53:00
8:53 AM,53.1,30.0,41,29.64,10.0,SW,32.2,48.3,N/A,,Partly Cloudy,220,2012-11-21 15:53:00
9:53 AM,55.9,30.9,39,29.62,10.0,SW,34.5,44.9,N/A,,Overcast,230,2012-11-21 16:53:00
10:53 AM,55.0,28.0,35,29.61,10.0,SW,35.7,50.6,N/A,,Clear,230,2012-11-21 17:53:00
11:53 AM,54.0,30.0,40,29.60,10.0,SW,38.0,50.6,N/A,,Partly Cloudy,220,2012-11-21 18:53:00
12:53 PM,57.9,30.0,35,29.59,10.0,West,19.6,35.7,0.00,,Overcast,280,2012-11-21 19:53:00
1:53 PM,57.9,26.1,30,29.56,10.0,SW,31.1,41.4,N/A,,Mostly Cloudy,230,2012-11-21 20:53:00
2:23 PM,48.2,33.8,58,29.72,10.0,NW,16.1,32.2,N/A,,Overcast,310,2012-11-21 21:23:00
2:36 PM,42.8,35.6,76,29.74,6.0,WNW,29.9,38.0,0.01,Rain-Thunderstorm,Light Thunderstorms and Rain,300,2012-11-21 21:36:00
2:53 PM,39.9,36.0,86,29.71,10.0,WSW,12.7,-,0.01,Rain,Light Rain,250,2012-11-21 21:53:00
3:53 PM,41.0,35.1,79,29.75,10.0,SW,8.1,-,0.00,Rain,Light Rain,230,2012-11-21 22:53:00
4:53 PM,39.0,32.0,76,29.78,10.0,NNW,21.9,28.8,0.00,,Overcast,330,2012-11-21 23:53:00
4:58 PM,37.4,32.0,81,29.81,10.0,WNW,13.8,28.8,N/A,,Overcast,300,2012-11-21 23:58:00
5:21 PM,35.6,33.8,93,29.83,3.0,NNW,11.5,29.9,0.03,Snow,Light Snow,330,2012-11-22 00:21:00
5:23 PM,35.6,32.0,87,29.82,2.0,North,15.0,29.9,0.04,Snow,Light Snow,350,2012-11-22 00:23:00
5:30 PM,33.8,32.0,93,29.83,1.5,NNW,16.1,21.9,0.05,Snow,Light Snow,340,2012-11-22 00:30:00
5:42 PM,33.8,32.0,93,29.83,2.0,NNW,10.4,20.7,0.06,Snow,Light Snow,340,2012-11-22 00:42:00
5:53 PM,34.0,32.0,92,29.85,2.0,NW,10.4,23.0,0.07,Snow,Light Snow,310,2012-11-22 00:53:00
6:01 PM,35.6,32.0,87,29.87,7.0,West,8.1,-,0.00,Snow,Light Snow,270,2012-11-22 01:01:00
6:15 PM,33.8,32.0,93,29.87,2.5,WSW,5.8,-,0.01,Snow,Light Snow,250,2012-11-22 01:15:00
6:23 PM,35.6,32.0,87,29.87,6.0,West,9.2,-,0.01,Snow,Light Snow,280,2012-11-22 01:23:00
6:39 PM,35.6,32.0,87,29.89,1.8,WNW,15.0,20.7,0.02,Snow,Light Snow,290,2012-11-22 01:39:00
6:44 PM,33.8,30.2,87,29.90,0.8,WNW,12.7,20.7,0.03,Snow,Light Snow,290,2012-11-22 01:44:00
6:53 PM,34.0,30.9,89,29.90,0.5,West,11.5,-,0.06,Fog-Snow,Snow,280,2012-11-22 01:53:00
7:12 PM,33.8,30.2,87,29.90,0.8,WSW,13.8,-,0.01,Snow,Light Snow,250,2012-11-22 02:12:00
7:14 PM,33.8,30.2,87,29.90,1.0,WSW,15.0,-,0.01,Snow,Light Snow,240,2012-11-22 02:14:00
7:21 PM,33.8,30.2,87,29.91,2.0,WSW,11.5,-,0.01,Snow,Light Snow,240,2012-11-22 02:21:00
7:28 PM,33.8,30.2,87,29.91,6.0,SW,10.4,-,0.01,Snow,Light Snow,230,2012-11-22 02:28:00
7:53 PM,34.0,30.0,85,29.93,10.0,SSW,6.9,-,0.01,,Overcast,210,2012-11-22 02:53:00
8:53 PM,33.1,28.0,82,29.93,10.0,SW,9.2,-,N/A,,Overcast,230,2012-11-22 03:53:00
9:53 PM,34.0,27.0,75,29.95,10.0,WSW,16.1,-,N/A,,Mostly Cloudy,250,2012-11-22 04:53:00
10:53 PM,32.0,23.0,69,29.96,10.0,WSW,20.7,-,N/A,,Clear,240,2012-11-22 05:53:00
11:53 PM,32.0,21.0,64,29.98,10.0,WSW,21.9,27.6,N/A,,Clear,250,2012-11-22 06:53:00